Weather reports worldwide

Advertisment
Odiham, United Kingdom (3761): temperature & dewpoint: 17.10.2020 00:00:00 - 23.10.2020 00:00:00 (BST)Odiham, United Kingdom (3761): temperature -20cm & temperature -100cm: 17.10.2020 00:00:00 - 23.10.2020 00:00:00 (BST)Odiham, United Kingdom (3761): wind speed & gusts: 17.10.2020 00:00:00 - 23.10.2020 00:00:00 (BST)Odiham, United Kingdom (3761): wind direction: 17.10.2020 00:00:00 - 23.10.2020 00:00:00 (BST)Odiham, United Kingdom (3761): reduced air pressure: 17.10.2020 00:00:00 - 23.10.2020 00:00:00 (BST)Odiham, United Kingdom (3761): visibility: 17.10.2020 00:00:00 - 23.10.2020 00:00:00 (BST)Odiham, United Kingdom (3761): sunshine duration: 17.10.2020 00:00:00 - 23.10.2020 00:00:00 (BST)Odiham, United Kingdom (3761): precipitation: 17.10.2020 00:00:00 - 23.10.2020 00:00:00 (BST)
Date & Time tt [°C] td [°C] tt -20cm [°C] tt -100cm [°C] ff [km/h] ff [kn] fx [km/h] fx [kn] dd ppp [hPa] vv [km] sd [min] rr [mm]
23.10.2020 00:00:00 - - - - - - - - - - - - -
22.10.2020 23:00:00 10,5 9,8 - - 11 6 - - SSW 1010,5 10 0 0,0
22.10.2020 22:00:00 10,7 10,1 - - 13 7 - - SSW 1010,7 10 0 0,0
22.10.2020 21:00:00 11,8 10,9 - - 15 8 - - S 1010,5 10 0 0,0
22.10.2020 20:00:00 11,0 9,6 - - 8 4 - - SW 1010,6 10 0 0,0
22.10.2020 19:00:00 11,7 9,9 - - 11 6 - - S 1010,1 10 0 0,0
22.10.2020 18:00:00 13,2 9,6 - - 13 7 - - SW 1009,6 10 6 0,0
22.10.2020 17:00:00 13,9 10,4 - - 13 7 - - SW 1009,3 10 60 0,0
22.10.2020 16:00:00 14,1 11,5 - - 13 7 - - WSW 1009,1 30 6 0,0
22.10.2020 15:00:00 14,7 9,9 - - 16 9 - - WSW 1008,7 10 18 0,0
22.10.2020 14:00:00 15,1 9,8 - - 24 13 - - SW 1008,8 10 36 0,0
22.10.2020 13:00:00 15,0 10,0 - - 22 12 - - SW 1008,7 35 54 0,0
22.10.2020 12:00:00 14,1 9,7 - - 24 13 - - SW 1008,9 10 48 0,0
22.10.2020 11:00:00 13,5 10,5 - - 22 12 - - WSW 1008,6 10 42 0,0
22.10.2020 10:00:00 12,2 10,5 13,0 13,4 21 11 - - SW 1008,5 10 0 0,0
22.10.2020 09:00:00 12,2 10,5 - - 21 11 - - SSW 1007,9 10 0 0,0
22.10.2020 08:00:00 11,7 10,2 - - 18 10 - - SSW 1007,0 20 0 0,0
22.10.2020 07:00:00 11,5 10,2 - - 22 12 - - SSW 1006,4 19 0 0,0
22.10.2020 06:00:00 11,7 10,3 - - 21 11 - - SSW 1006,1 20 0 0,0
22.10.2020 05:00:00 11,6 10,4 - - 21 11 - - SSW 1005,7 19 0 0,0
22.10.2020 04:00:00 11,5 10,3 - - 18 10 - - SSW 1005,5 10 0 0,0
22.10.2020 03:00:00 11,7 10,2 - - 21 11 - - SSW 1005,4 21 0 0,0
22.10.2020 02:00:00 11,9 10,2 - - 18 10 - - SSW 1005,1 21 0 0,0
22.10.2020 01:00:00 12,3 10,6 - - 18 10 - - SW 1004,5 10 - 0,0
22.10.2020 00:00:00 12,4 10,8 - - 22 12 - - SSW 1004,0 10 0 0,0
21.10.2020 23:00:00 12,0 10,3 - - 26 14 46 25 SSW 1003,7 10 0 0,0
21.10.2020 22:00:00 13,2 11,4 - - 26 14 55 30 SSW 1003,0 30 0 0,2
21.10.2020 21:00:00 13,8 12,6 - - 24 13 - - SSW 1002,1 10 0 0,0
21.10.2020 20:00:00 13,1 12,1 - - 22 12 - - SSW 1001,7 10 0 0,0
21.10.2020 19:00:00 13,8 12,5 - - 21 11 - - SSW 1000,7 10 0 0,0
21.10.2020 18:00:00 14,1 12,9 - - 18 10 - - SSW 999,8 10 0 0,0
21.10.2020 17:00:00 14,3 12,6 - - 21 11 - - SW 998,7 10 0 0,0
21.10.2020 16:00:00 14,8 13,2 - - 24 13 - - WSW 997,1 10 0 0,0
21.10.2020 15:00:00 13,5 12,8 - - 22 12 - - W 995,1 10 0 0,6
21.10.2020 14:00:00 15,3 14,5 - - 16 9 - - SW 992,8 10 0 0,2
21.10.2020 13:00:00 14,8 14,3 - - 13 7 - - SW 992,2 10 0 0,2
21.10.2020 12:00:00 14,2 14,1 - - 8 4 - - WSW 991,4 10 0 1,6
21.10.2020 11:00:00 13,9 13,8 - - 4 2 - - E 990,9 7 0 2,8
21.10.2020 10:00:00 13,9 13,8 12,9 13,4 5 3 - - E 991,1 5 0 2,8
21.10.2020 09:00:00 13,7 13,6 - - 13 7 - - E 991,9 5 0 2,2
21.10.2020 08:00:00 13,7 13,6 - - 13 7 - - E 992,4 4,0 0 1,2
21.10.2020 07:00:00 13,9 13,7 - - 18 10 - - E 993,3 4,5 0 2,0
21.10.2020 06:00:00 13,9 13,8 - - 13 7 - - ENE 994,6 7 0 1,0
21.10.2020 05:00:00 14,2 13,9 - - 11 6 - - ESE 995,8 9 0 0,4
21.10.2020 04:00:00 14,3 14,0 - - 13 7 - - SE 996,8 10 0 0,4
21.10.2020 03:00:00 14,5 13,7 - - 13 7 - - SE 997,8 8 0 0,0
21.10.2020 02:00:00 14,5 13,3 - - 15 8 - - SSE 998,4 10 0 0,0
21.10.2020 01:00:00 14,5 13,2 - - 18 10 - - SSE 998,9 10 - 0,0
21.10.2020 00:00:00 14,6 13,2 - - 24 13 - - SSE 999,3 10 0 0,0
20.10.2020 23:00:00 14,8 13,2 - - 21 11 - - SSE 999,6 10 0 0,0
20.10.2020 22:00:00 14,9 13,2 - - 24 13 - - SSE 999,5 10 0 0,0
20.10.2020 21:00:00 14,7 13,3 - - 26 14 - - SSE 1000,2 10 0 0,0
20.10.2020 20:00:00 14,3 13,3 - - 24 13 - - SSE 1000,2 10 0 0,0
20.10.2020 19:00:00 13,8 12,7 - - 21 11 - - SSE 1000,5 10 0 0,0
20.10.2020 18:00:00 15,3 12,9 - - 21 11 - - S 1000,4 10 0 0,0
20.10.2020 17:00:00 15,9 13,1 - - 21 11 - - S 1000,6 21 6 0,0
20.10.2020 16:00:00 16,4 12,5 - - 28 15 - - S 1000,9 10 24 0,0
20.10.2020 15:00:00 17,2 12,6 - - 29 16 - - S 1000,8 10 18 0,0
20.10.2020 14:00:00 16,1 12,9 - - 22 12 - - S 1001,1 10 6 0,0
20.10.2020 13:00:00 16,3 12,9 - - 26 14 48 26 S 1001,4 10 6 0,0
20.10.2020 12:00:00 16,0 13,2 - - 26 14 46 25 S 1001,5 10 0 0,0
20.10.2020 11:00:00 15,5 13,6 - - 26 14 48 26 S 1001,3 10 0 0,0
20.10.2020 10:00:00 14,7 13,1 12,4 13,4 22 12 46 25 S 1001,1 10 0 0,0
20.10.2020 09:00:00 14,2 12,9 - - 24 13 - - S 1000,9 10 0 0,0
20.10.2020 08:00:00 13,5 12,5 - - 26 14 - - SSE 1000,5 10 0 0,0
20.10.2020 07:00:00 13,0 12,3 - - 26 14 - - SSE 1000,6 7 0 0,6
20.10.2020 06:00:00 12,7 12,2 - - 26 14 - - SSE 1000,8 4,0 0 1,0
20.10.2020 05:00:00 12,3 11,8 - - 26 14 - - SSE 1000,8 4,1 0 0,2
20.10.2020 04:00:00 11,9 11,2 - - 22 12 - - SSE 1001,2 14 0 0,0
20.10.2020 03:00:00 12,0 10,1 - - 21 11 - - SSE 1002,3 10 0 0,0
20.10.2020 02:00:00 11,8 9,3 - - 22 12 - - SSE 1003,1 10 0 0,0
20.10.2020 01:00:00 11,7 8,5 - - 24 13 - - SSE 1004,2 10 - 0,0
20.10.2020 00:00:00 11,4 8,1 - - 26 14 - - SE 1004,9 10 0 0,0
19.10.2020 23:00:00 11,6 8,0 - - 28 15 - - SE 1005,6 25 0 0,0
19.10.2020 22:00:00 11,8 8,1 - - 29 16 - - SE 1006,3 10 0 0,0
19.10.2020 21:00:00 11,9 7,9 - - 28 15 - - SE 1007,4 10 0 0,0
19.10.2020 20:00:00 11,8 7,6 - - 22 12 - - ESE 1008,1 25 0 0,0
19.10.2020 19:00:00 11,8 7,6 - - 28 15 - - SE 1009,2 10 0 0,0
19.10.2020 18:00:00 11,9 7,7 - - 22 12 - - SE 1009,8 10 0 0,0
19.10.2020 17:00:00 12,3 7,3 - - 21 11 - - SE 1011,0 10 0 0,0
19.10.2020 16:00:00 12,7 7,3 - - 24 13 - - SE 1011,9 10 0 0,0
19.10.2020 15:00:00 13,0 7,2 - - 24 13 - - SE 1013,0 10 36 0,0
19.10.2020 14:00:00 13,5 6,8 - - 26 14 - - SSE 1014,0 10 48 0,0
19.10.2020 13:00:00 14,4 7,3 - - 26 14 46 25 SSE 1014,9 10 60 0,0
19.10.2020 12:00:00 13,9 7,9 - - 26 14 - - SSE 1015,9 10 42 0,0
19.10.2020 11:00:00 12,5 9,3 - - 16 9 - - SSE 1016,8 10 6 0,0
19.10.2020 10:00:00 10,3 8,3 12,4 13,5 11 6 - - SE 1017,1 10 6 0,0
19.10.2020 09:00:00 8,8 7,8 - - 11 6 - - SE 1018,1 10 0 0,0
19.10.2020 08:00:00 7,5 6,5 - - 11 6 - - SE 1018,1 9 0 0,0
19.10.2020 07:00:00 8,5 7,6 - - 11 6 - - SE 1018,8 10 0 0,0
19.10.2020 06:00:00 7,1 6,8 - - 11 6 - - ESE 1019,2 9 0 0,0
19.10.2020 05:00:00 6,4 5,7 - - 11 6 - - SE 1019,9 10 0 0,0
19.10.2020 04:00:00 6,6 5,2 - - 9 5 - - SSE 1020,4 11 0 0,0
19.10.2020 03:00:00 8,7 7,1 - - 13 7 - - SSE 1020,8 14 0 0,0
19.10.2020 02:00:00 9,7 7,7 - - 11 6 - - S 1021,3 11 0 0,0
19.10.2020 01:00:00 9,5 7,7 - - 5 3 - - S 1022,0 10 - 0,0
19.10.2020 00:00:00 9,3 7,2 - - 5 3 - - S 1022,4 11 0 0,0
18.10.2020 23:00:00 9,2 7,3 - - 5 3 - - S 1022,6 10 0 0,0
18.10.2020 22:00:00 9,2 8,0 - - 5 3 - - S 1023,0 8 0 0,0
18.10.2020 21:00:00 9,7 8,3 - - 5 3 - - SSW 1023,0 13 0 0,0
18.10.2020 20:00:00 9,6 8,2 - - 4 2 - - S 1023,5 10 0 0,0
18.10.2020 19:00:00 10,2 8,4 - - 4 2 - - S 1023,5 9 0 0,0
18.10.2020 18:00:00 11,0 8,2 - - 2 1 - - WSW 1022,9 10 0 0,0
18.10.2020 17:00:00 11,7 7,1 - - 4 2 - - SW 1022,9 10 0 0,0
18.10.2020 16:00:00 12,1 7,0 - - 4 2 - - S 1023,2 35 6 0,0
18.10.2020 15:00:00 12,2 7,0 - - 4 2 - - NNW 1023,4 27 36 0,0
18.10.2020 14:00:00 11,7 8,4 - - 2 1 - - E 1024,0 24 0 0,0
18.10.2020 13:00:00 10,8 8,7 - - 4 2 - - ENE 1024,6 10 0 0,0
18.10.2020 12:00:00 9,6 8,5 - - 4 2 - - NNE 1025,2 8 0 0,0
18.10.2020 11:00:00 8,3 7,7 - - 8 4 - - W 1025,2 6 0 0,0
18.10.2020 10:00:00 7,5 7,1 12,5 13,7 8 4 - - W 1025,1 6 0 0,0
18.10.2020 09:00:00 6,7 6,6 - - 4 2 - - WNW 1025,1 7 0 0,0
18.10.2020 08:00:00 4,8 4,6 - - 5 3 - - SW 1024,7 5 0 0,0
18.10.2020 07:00:00 4,9 4,6 - - 8 4 - - SW 1024,0 7 0 0,0
18.10.2020 06:00:00 5,3 4,7 - - 5 3 - - W 1023,8 9 0 0,0
18.10.2020 05:00:00 6,3 5,3 - - 5 3 - - N 1023,7 10 0 0,0
18.10.2020 04:00:00 6,7 5,6 - - 8 4 - - WNW 1024,0 10 0 0,0
18.10.2020 03:00:00 7,6 5,9 - - 8 4 - - WNW 1024,1 10 0 0,0
18.10.2020 02:00:00 8,4 6,7 - - 5 3 - - WNW 1024,0 10 0 0,0
18.10.2020 01:00:00 8,6 6,4 - - 2 1 - - NNW 1024,1 20 - 0,0
18.10.2020 00:00:00 8,7 7,0 - - 2 1 - - N 1024,1 16 0 0,0
17.10.2020 23:00:00 9,1 7,1 - - 5 3 - - WNW 1023,8 20 0 0,0
17.10.2020 22:00:00 9,3 6,9 - - 0 0 - - N 1023,6 10 0 0,0
17.10.2020 21:00:00 9,4 7,2 - - 4 2 - - NE 1023,4 10 0 0,0
17.10.2020 20:00:00 9,6 7,1 - - 9 5 - - N 1023,3 25 0 0,0
17.10.2020 19:00:00 10,1 7,3 - - 8 4 - - NNE 1022,9 10 0 0,0
17.10.2020 18:00:00 10,9 7,6 - - 5 3 - - N 1022,1 10 0 0,0
17.10.2020 17:00:00 11,3 7,3 - - 5 3 - - N 1021,9 28 0 0,0
17.10.2020 16:00:00 11,4 7,0 - - 8 4 - - N 1022,1 29 0 0,0
17.10.2020 15:00:00 11,5 6,8 - - 8 4 - - N 1022,2 27 0 0,0
17.10.2020 14:00:00 11,5 7,4 - - 5 3 - - N 1022,2 26 0 0,0
17.10.2020 13:00:00 11,3 7,9 - - 8 4 - - NNE 1022,5 27 0 0,0
17.10.2020 12:00:00 10,5 7,8 - - 9 5 - - NE 1022,8 25 0 0,0
17.10.2020 11:00:00 10,1 7,9 - - 11 6 - - NE 1022,8 23 0 0,0
17.10.2020 10:00:00 9,6 8,0 12,2 13,7 9 5 - - NNE 1022,7 10 0 0,0
17.10.2020 09:00:00 9,0 8,0 - - 5 3 - - NNE 1022,8 24 0 0,0
17.10.2020 08:00:00 8,9 7,8 - - 8 4 - - NNE 1022,5 10 0 0,0
17.10.2020 07:00:00 9,1 8,1 - - 9 5 - - NNE 1022,3 24 0 0,0
17.10.2020 06:00:00 9,1 8,4 - - 8 4 - - NNE 1022,4 10 0 0,0
17.10.2020 05:00:00 9,0 8,2 - - 8 4 - - N 1022,5 22 0 0,0
17.10.2020 04:00:00 9,1 8,2 - - 8 4 - - NNE 1022,7 26 0 0,0
17.10.2020 03:00:00 9,1 8,3 - - 5 3 - - N 1022,9 10 0 0,0
17.10.2020 02:00:00 8,8 8,1 - - 4 2 - - N 1023,3 10 0 0,0
17.10.2020 01:00:00 8,6 7,5 - - 4 2 - - NNW 1023,4 12 - 0,0
17.10.2020 00:00:00 8,8 7,0 - - 4 2 - - N 1023,8 10 0 0,0

tt = temperature
td = dewpoint
tt -20cm = temperature -20cm
tt -100cm = temperature -100cm
ff = wind speed
fx = gusts
dd = wind direction
ppp = reduced air pressure
vv = visibility
sd = sunshine duration
rr = precipitation

Next stations